Location: Arrodets-la-Barthe
(43.0306°N, 0.2829°E)
Time: 01:16:30
(UTC+00:00)

Cosmos 2344 - Pass Details

Date: 30 May 2022
Orbit: 1228 x 3015 km, 63.3° (Epoch: 04 July)

Event Time Altitude Azimuth Distance (km) Brightness Sun altitude
Rises 02:45:21 0° 322° (NW) 4,369 6.5 -14.5°
Reaches altitude 10° 02:48:12 10° 330° (NNW) 3,521 6.1 -14.1°
Maximum altitude 02:56:17 40° 39° (NE) 2,335 5.6 -13.1°
Drops below altitude 10° 03:07:01 10° 107° (ESE) 4,674 6.9 -11.8°
Sets 03:11:26 0° 114° (ESE) 5,951 7.4 -11.2°
